Temp
13 13 13 12 12 12 12 12 12 12 12 12 12 11 11 11 12 12 12 11 11 11 11 11 10 10 10 10 10 10 10 10 9 9 9 9 9 9 9 9 9 8
14 13 13 13 12 12 12 12 12 12 12 12 12 12 12 12 12 12 12 12 12 11 11 11 11 11 10 10 10 10 10 9 9 9 9 9 9 9 8 8 8 8
14 13 13 13 13 12 12 12 12 12 12 12 12 12 12 12 12 12 12 12 12 11 11 11 11 11 10 10 10 10 9 9 9 9 9 8 8 8 8 8 8 8
14 13 13 13 13 12 12 12 12 12 12 12 12 12 12 12 12 12 12 12 12 11 11 11 10 10 10 10 10 9 9 9 9 9 8 8 8 8 8 8 8 8
14 13 13 13 13 13 12 12 12 12 12 13 13 13 13 13 12 12 12 12 12 11 11 11 10 10 10 10 9 9 9 8 8 8 8 8 8 8 8 8 8 8
13 13 13 13 13 13 13 13 13 13 13 13 13 13 13 13 12 12 12 12 11 11 11 10 10 10 9 9 9 9 9 8 8 8 8 8 8 7 7 7 7 7
14 13 13 13 13 13 13 13 13 13 13 13 13 13 13 13 12 12 12 12 11 11 10 10 10 10 9 9 9 9 8 8 8 8 7 7 7 7 7 7 7 7
14 13 13 13 13 13 13 13 13 13 13 13 13 13 13 12 12 12 12 12 11 11 10 10 10 10 10 9 9 9 8 8 8 7 7 7 6 6 6 6 6 6
14 14 14 14 13 13 13 13 13 13 13 13 13 13 13 12 12 12 12 12 11 11 11 10 10 10 10 10 9 9 8 8 8 7 7 6 6 6 6 6 6 6
14 14 14 14 14 13 13 13 13 13 13 13 13 13 12 12 12 12 12 12 11 11 11 10 10 10 10 10 9 9 8 8 7 7 7 6 6 6 6 5 5 6
14 14 14 14 14 14 14 13 13 13 13 13 13 13 12 12 12 12 11 11 11 11 11 10 10 10 10 9 9 9 8 8 7 7 7 7 6 6 5 5 5 5
14 14 14 14 14 14 14 14 14 14 14 13 13 12 12 12 12 11 11 11 11 11 10 10 10 10 10 10 9 9 9 8 7 7 7 7 6 5 5 5 5 5
14 15 15 14 14 14 14 14 14 14 14 13 13 13 12 12 12 11 11 11 10 10 10 10 10 10 10 10 9 9 9 9 8 7 7 7 7 6 5 5 5 5
15 15 15 14 14 14 14 14 14 14 14 13 13 12 12 12 12 11 11 11 10 10 10 10 10 10 10 10 9 9 9 9 8 8 8 7 7 7 6 5 5 4
15 15 15 14 14 14 14 14 14 14 14 13 13 12 12 12 11 11 11 11 10 10 10 10 10 10 10 10 9 9 9 9 8 8 8 7 7 7 6 6 5 5
15 15 15 15 15 15 15 14 14 14 14 13 13 12 12 12 11 11 11 10 10 10 10 10 10 10 10 9 9 9 8 8 8 8 7 7 6 6 6 6 5 5
15 15 15 15 15 15 14 14 14 14 13 13 12 12 12 12 11 11 11 10 10 10 10 10 10 10 9 9 9 9 8 8 7 7 7 6 6 6 6 6 5 5
15 16 16 15 15 15 14 14 14 13 13 12 12 12 11 11 11 11 11 10 10 10 10 10 10 10 9 9 9 9 8 8 7 7 6 6 6 6 6 5 5 5
16 16 16 16 15 14 14 14 13 13 12 12 12 11 11 11 11 11 11 11 11 11 10 10 10 10 9 9 9 8 8 8 7 6 6 6 6 6 6 5 5 5
15 15 15 15 14 14 14 14 13 12 12 12 12 12 12 12 12 12 11 11 11 11 11 10 10 10 9 9 9 8 8 7 7 6 6 6 6 6 6 5 5 4
16 15 14 14 14 14 14 13 13 12 12 12 12 13 13 13 12 12 12 11 11 11 11 11 10 10 10 9 9 8 7 7 6 6 6 6 6 6 6 5 5 4
16 15 14 14 14 14 13 13 13 13 13 13 13 13 13 13 12 12 12 12 12 11 11 11 10 10 10 9 9 8 7 6 6 6 6 6 6 6 6 5 5 5
16 15 14 14 14 13 13 13 13 13 13 13 13 13 13 13 12 12 12 12 11 11 11 11 10 10 9 8 8 7 7 7 7 6 6 6 6 6 5 5 5 5
16 15 14 14 14 13 13 13 13 13 13 13 13 13 12 12 12 12 11 11 11 11 11 10 10 9 8 8 8 8 7 7 6 6 7 6 6 6 5 5 5 4
15 15 14 14 13 13 13 13 13 13 13 13 12 12 12 12 12 11 11 11 11 11 11 10 10 9 9 8 8 8 7 7 7 7 7 6 6 6 5 5 4 4
15 14 14 14 13 13 13 13 13 13 13 12 12 12 12 11 11 11 11 11 10 10 10 10 9 9 9 9 8 8 7 7 7 7 6 6 6 5 5 5 4 4
Height
3180 3181 3182 3183 3185 3185 3186 3187 3188 3189 3189 3190 3191 3192 3193 3193 3194 3195 3196 3196 3196 3195 3195 3195 3195 3195 3195 3195 3194 3194 3193 3192 3191 3191 3191 3190 3190 3190 3189 3189 3188 3188
3178 3180 3181 3182 3183 3183 3184 3185 3186 3187 3187 3188 3190 3190 3191 3192 3193 3194 3194 3194 3194 3194 3194 3194 3194 3194 3194 3194 3193 3192 3192 3191 3190 3189 3189 3189 3189 3189 3188 3188 3187 3187
3176 3177 3179 3180 3181 3182 3183 3184 3184 3185 3185 3186 3188 3188 3189 3191 3192 3192 3192 3193 3193 3192 3192 3193 3193 3193 3192 3192 3192 3191 3191 3190 3189 3188 3188 3188 3188 3188 3188 3187 3187 3186
3174 3175 3177 3178 3179 3180 3181 3181 3182 3182 3183 3184 3186 3186 3188 3190 3190 3191 3191 3191 3191 3191 3191 3191 3191 3191 3190 3190 3189 3189 3189 3189 3188 3188 3187 3187 3187 3187 3187 3186 3186 3185
3172 3173 3175 3176 3177 3178 3178 3179 3180 3180 3181 3182 3184 3185 3187 3188 3189 3190 3190 3189 3189 3189 3189 3189 3189 3188 3188 3187 3187 3187 3186 3186 3186 3186 3186 3185 3185 3184 3184 3184 3184 3183
3170 3171 3173 3174 3175 3175 3176 3177 3177 3178 3179 3181 3183 3184 3186 3187 3188 3188 3188 3187 3187 3187 3187 3187 3186 3186 3185 3185 3185 3184 3184 3184 3184 3184 3184 3183 3183 3182 3182 3182 3182 3181
3167 3169 3170 3172 3172 3173 3174 3175 3175 3176 3177 3179 3181 3183 3184 3186 3186 3185 3185 3185 3185 3184 3184 3184 3184 3183 3182 3182 3182 3182 3182 3181 3181 3181 3181 3181 3180 3180 3179 3179 3179 3179
3165 3167 3168 3170 3170 3170 3172 3172 3173 3174 3176 3178 3179 3181 3182 3183 3183 3183 3183 3183 3182 3182 3182 3181 3181 3181 3180 3180 3179 3179 3179 3179 3178 3178 3178 3177 3177 3177 3177 3176 3176 3176
3162 3164 3166 3167 3167 3168 3169 3170 3171 3173 3174 3176 3177 3179 3180 3181 3181 3181 3181 3180 3180 3180 3180 3179 3179 3178 3178 3177 3177 3176 3176 3175 3175 3175 3175 3175 3174 3174 3174 3174 3174 3174
3160 3161 3163 3164 3164 3165 3166 3168 3170 3171 3172 3174 3175 3177 3178 3179 3179 3179 3178 3178 3177 3177 3177 3177 3176 3176 3175 3174 3173 3173 3172 3172 3172 3172 3172 3172 3172 3172 3172 3171 3171 3171
3157 3158 3160 3161 3162 3162 3163 3165 3167 3169 3170 3172 3173 3175 3176 3177 3177 3176 3176 3175 3175 3175 3175 3175 3174 3173 3172 3172 3171 3170 3169 3168 3168 3168 3168 3168 3168 3168 3168 3168 3168 3168
3153 3155 3157 3158 3159 3159 3161 3163 3164 3166 3168 3169 3171 3172 3173 3174 3174 3174 3174 3173 3173 3173 3173 3172 3172 3171 3170 3169 3169 3168 3166 3165 3165 3165 3165 3165 3165 3164 3164 3165 3165 3165
3150 3152 3154 3155 3156 3157 3158 3160 3162 3163 3165 3167 3169 3170 3170 3171 3172 3172 3171 3171 3171 3171 3171 3170 3169 3169 3168 3168 3167 3166 3164 3163 3162 3161 3161 3161 3161 3161 3161 3161 3162 3162
3147 3149 3151 3152 3154 3155 3156 3158 3159 3161 3162 3165 3166 3166 3166 3168 3169 3169 3168 3168 3168 3167 3168 3167 3166 3166 3166 3166 3165 3164 3162 3160 3159 3158 3158 3158 3158 3158 3158 3158 3158 3159
3145 3147 3148 3149 3151 3152 3153 3155 3157 3158 3160 3161 3162 3163 3163 3164 3166 3166 3165 3165 3165 3165 3164 3164 3163 3163 3163 3164 3163 3161 3159 3158 3156 3155 3155 3155 3155 3155 3155 3155 3155 3155
3142 3143 3145 3146 3148 3149 3151 3152 3154 3156 3157 3158 3159 3160 3161 3161 3162 3162 3163 3164 3164 3162 3162 3160 3159 3160 3160 3161 3161 3159 3157 3155 3154 3152 3152 3153 3153 3153 3153 3152 3152 3152
3139 3140 3142 3143 3144 3146 3148 3150 3152 3153 3155 3155 3156 3158 3158 3158 3157 3158 3159 3161 3159 3158 3157 3157 3155 3156 3157 3158 3158 3157 3155 3153 3151 3150 3149 3149 3149 3149 3150 3149 3149 3149
3136 3137 3138 3139 3141 3143 3145 3147 3149 3150 3152 3153 3153 3154 3154 3154 3153 3153 3155 3155 3153 3152 3152 3152 3151 3152 3153 3154 3154 3153 3152 3150 3148 3147 3146 3146 3145 3146 3146 3146 3146 3145
3133 3133 3134 3136 3138 3141 3143 3144 3146 3147 3149 3149 3150 3150 3150 3150 3150 3150 3150 3149 3148 3148 3148 3148 3148 3149 3149 3150 3150 3149 3148 3147 3146 3144 3142 3142 3142 3142 3142 3142 3142 3142
3129 3130 3132 3134 3136 3138 3140 3141 3142 3144 3145 3146 3146 3146 3146 3146 3146 3146 3146 3146 3145 3145 3146 3146 3145 3146 3146 3146 3146 3145 3145 3144 3143 3140 3139 3138 3138 3139 3139 3138 3138 3138
3126 3128 3130 3132 3134 3135 3137 3138 3139 3141 3142 3142 3142 3142 3143 3143 3143 3143 3143 3143 3143 3143 3143 3143 3142 3142 3143 3143 3142 3142 3141 3140 3139 3137 3136 3135 3135 3135 3135 3135 3135 3134
3123 3126 3127 3129 3131 3132 3134 3135 3136 3137 3138 3139 3139 3139 3139 3140 3140 3139 3140 3141 3142 3142 3141 3140 3139 3138 3138 3138 3138 3138 3138 3136 3135 3134 3133 3133 3133 3132 3131 3132 3132 3131
3119 3122 3124 3126 3128 3129 3131 3132 3133 3134 3135 3136 3136 3136 3136 3137 3137 3137 3138 3139 3140 3139 3138 3137 3135 3134 3134 3134 3133 3133 3133 3132 3131 3130 3129 3129 3129 3129 3129 3129 3129 3128
3116 3119 3121 3122 3124 3126 3128 3129 3131 3132 3133 3134 3134 3135 3135 3136 3136 3136 3135 3135 3135 3134 3133 3132 3130 3129 3129 3129 3129 3129 3129 3128 3127 3126 3126 3126 3126 3126 3126 3126 3126 3126
3113 3115 3117 3119 3121 3123 3125 3126 3127 3129 3130 3132 3133 3134 3134 3134 3134 3134 3133 3132 3130 3129 3128 3127 3125 3124 3125 3126 3126 3127 3126 3124 3124 3123 3122 3123 3123 3123 3123 3123 3123 3124
3110 3112 3114 3116 3118 3120 3121 3122 3124 3125 3127 3129 3130 3131 3132 3132 3132 3132 3129 3127 3125 3124 3124 3123 3122 3121 3123 3124 3124 3123 3122 3121 3121 3120 3120 3120 3121 3121 3121 3121 3121 3123
Wind_Speed
20 20 20 19 19 19 18 18 18 17 17 16 15 14 14 15 13 10 10 11 13 16 17 16 15 15 14 14 16 17 17 18 19 19 18 16 15 15 15 15 14 13
21 20 20 20 20 20 19 19 18 18 17 15 15 14 14 14 12 10 11 14 15 17 19 19 17 17 16 15 16 18 19 21 22 22 20 19 18 17 17 17 17 15
21 21 21 22 21 20 20 19 19 19 18 16 15 15 13 12 11 12 14 15 17 19 21 22 20 20 20 19 20 21 22 23 23 23 22 20 20 20 20 19 19 18
21 21 22 22 22 21 21 20 20 20 19 17 15 14 12 10 10 12 14 16 18 21 24 25 25 25 26 26 27 28 28 27 25 24 23 23 24 25 25 24 22 21
22 22 22 22 22 21 21 21 20 19 18 16 14 13 11 10 10 12 14 17 20 22 24 26 28 29 30 31 32 33 33 32 30 27 25 26 28 30 29 27 25 22
23 23 22 21 21 22 22 21 20 18 17 16 14 13 12 11 12 14 17 20 21 21 23 25 28 31 32 34 34 35 36 35 33 29 27 29 31 31 30 28 26 22
24 23 21 21 22 22 21 21 20 18 18 17 15 14 14 13 14 17 20 22 22 22 23 25 28 30 31 33 35 35 36 36 35 32 31 33 33 31 30 28 26 23
26 24 22 21 23 23 22 23 22 20 20 19 17 16 17 17 17 20 22 23 24 25 25 27 28 28 28 30 32 34 36 37 37 36 35 35 33 31 30 29 26 23
27 26 23 23 24 24 24 23 23 21 21 21 18 17 18 20 21 23 24 24 26 27 29 30 31 29 28 29 30 32 34 37 37 37 37 35 32 30 30 29 26 23
28 27 26 25 25 25 25 23 22 21 20 19 18 17 18 20 22 23 24 25 27 29 31 33 32 31 31 32 30 30 32 35 36 36 36 35 33 31 30 28 26 24
29 28 27 27 27 27 26 24 23 22 20 18 17 16 17 19 21 22 23 25 27 30 33 34 34 33 34 34 32 30 31 33 35 36 35 35 34 33 31 28 26 25
30 30 28 28 29 28 26 25 25 23 21 20 19 18 19 19 20 21 23 24 26 30 34 37 36 35 35 36 33 30 30 32 33 34 34 34 35 34 31 27 25 26
28 29 29 29 29 29 27 26 25 24 23 22 21 22 22 20 20 21 23 24 25 28 33 38 40 37 36 36 34 30 30 31 32 33 33 33 34 33 30 27 26 27
25 26 29 30 30 29 28 27 25 25 23 21 22 24 24 22 21 21 23 25 26 28 31 36 41 40 37 36 36 33 30 30 31 33 33 32 32 30 29 27 27 27
24 25 27 30 30 29 29 28 26 25 23 21 23 25 25 24 25 25 25 25 27 29 32 34 38 38 36 36 37 35 33 32 33 34 33 31 30 29 28 27 27 27
25 26 27 29 30 29 29 29 27 25 22 20 22 24 25 25 27 29 30 29 29 31 32 34 34 34 35 35 36 36 35 35 36 35 33 31 30 30 29 29 29 29
26 27 27 28 29 28 28 27 26 23 21 21 21 23 24 26 29 33 34 34 35 33 31 32 32 32 34 35 36 38 38 38 38 36 34 33 32 32 31 31 31 31
27 28 28 29 29 28 26 25 24 23 22 23 24 25 26 29 33 35 35 36 36 33 30 31 32 32 33 35 37 39 41 41 39 37 37 36 35 34 33 32 31 30
31 31 31 30 29 28 26 24 22 22 23 25 28 29 31 33 34 35 37 37 35 32 31 32 32 32 32 35 37 40 41 40 39 40 41 41 39 37 34 32 30 29
34 34 32 31 30 29 27 24 24 25 27 28 29 30 31 31 32 32 34 35 34 32 32 33 33 33 33 34 37 39 39 37 38 42 44 44 41 38 34 31 30 28
35 34 34 33 31 29 27 27 28 28 28 28 27 27 28 28 29 30 30 30 30 30 31 34 34 33 33 34 36 38 37 37 40 43 44 42 39 36 34 31 28 25
34 33 34 34 31 30 30 31 30 28 26 25 25 26 27 26 26 26 26 25 26 28 30 33 34 34 34 35 37 38 38 40 42 42 42 39 35 32 31 27 23 21
34 33 32 32 31 31 32 31 29 26 24 23 24 25 24 22 21 22 22 22 23 27 29 31 33 35 36 37 39 40 40 40 40 41 39 35 30 27 26 23 22 21
34 33 33 33 33 32 32 29 26 22 20 20 21 21 20 19 18 19 20 21 24 27 30 32 34 36 39 40 40 39 39 39 38 38 35 29 25 24 22 21 21 20
33 34 36 37 35 32 29 25 22 19 18 18 17 16 17 18 18 18 21 25 29 31 31 32 36 37 37 38 37 37 38 38 36 34 29 24 23 22 21 19 18 17
35 36 37 36 33 29 26 23 20 18 17 16 16 17 19 19 18 23 28 31 32 31 30 31 34 35 34 34 35 36 36 35 32 28 25 22 22 22 20 19 18 17
Wind_Direction
215 215 217 219 219 218 214 213 217 219 219 219 220 223 227 232 239 242 240 244 252 257 260 262 267 275 283 292 302 309 315 317 317 315 314 314 315 315 315 314 310 305
211 211 213 215 215 214 212 213 216 219 221 220 222 226 228 233 244 255 259 261 262 263 266 267 270 278 287 298 307 311 315 318 318 316 313 311 311 313 317 316 313 309
210 211 211 212 213 213 213 214 217 220 223 221 222 229 233 238 253 269 270 270 273 280 284 281 279 285 292 300 305 307 309 312 313 313 313 313 315 317 318 316 313 311
211 212 211 212 213 214 215 218 221 224 226 226 228 236 244 253 272 282 277 277 286 298 302 297 291 291 294 299 304 305 304 305 306 307 307 310 315 317 317 315 314 312
213 214 213 213 215 217 220 224 228 232 234 236 243 251 261 276 288 288 284 287 295 306 313 310 303 299 298 300 303 305 304 304 303 301 301 303 308 311 313 312 311 310
215 217 216 217 220 223 226 232 237 242 245 251 260 267 276 286 286 285 290 295 297 304 314 317 314 310 306 304 304 304 304 304 302 297 297 301 303 305 309 309 306 305
217 219 220 222 226 229 232 238 245 250 253 260 270 274 280 284 280 282 291 295 296 301 308 315 319 317 312 308 306 304 303 303 301 296 295 300 303 302 307 308 305 303
220 222 224 226 231 235 237 241 249 254 255 263 275 280 281 280 277 281 287 290 293 297 301 307 315 318 315 309 305 303 302 301 302 299 298 302 303 301 304 307 304 302
223 225 226 229 234 238 240 243 251 257 259 266 277 284 281 277 277 281 284 286 289 292 294 299 307 314 315 311 303 299 299 298 300 301 301 303 302 297 301 304 300 299
227 227 228 231 235 239 242 245 250 256 262 270 277 281 279 277 280 285 286 285 286 288 289 293 301 308 313 313 305 296 294 295 296 298 300 302 299 296 298 299 295 295
229 230 231 232 235 239 242 245 249 253 259 267 273 276 277 278 284 290 293 292 289 285 284 288 295 303 310 313 307 296 291 291 292 294 296 298 298 296 296 294 292 292
229 231 232 233 235 240 242 245 249 253 256 262 269 274 276 281 287 291 296 301 298 288 282 283 289 298 305 309 307 297 288 287 288 289 291 293 295 295 292 289 288 290
229 231 233 233 235 240 243 245 250 255 257 261 267 270 275 280 285 287 291 300 304 296 286 281 282 289 297 302 303 297 288 286 286 286 288 290 291 291 289 285 283 286
232 232 233 234 236 240 244 248 254 260 263 263 263 266 272 277 280 281 283 290 298 298 290 282 281 283 288 294 298 296 291 289 287 285 287 288 290 289 288 285 282 283
232 232 232 234 237 240 246 251 256 262 266 266 262 265 272 274 273 274 275 280 289 292 287 282 280 281 284 289 293 294 293 291 287 287 287 287 289 289 288 286 281 280
229 231 232 236 239 241 245 250 255 261 266 264 262 265 271 272 271 270 269 271 279 284 281 276 277 278 280 284 287 289 292 291 289 289 289 287 287 288 289 287 282 279
228 234 237 239 242 243 244 248 253 259 261 260 261 264 267 268 267 266 268 270 273 277 275 271 272 275 276 279 281 283 287 290 291 292 292 290 289 289 290 289 285 281
235 240 243 244 245 246 248 250 254 257 260 262 264 263 262 263 263 265 270 274 274 272 268 266 267 269 271 273 275 277 281 285 288 291 292 291 290 290 291 289 285 282
238 242 245 246 247 249 252 254 256 258 261 264 263 262 261 262 264 266 269 272 272 269 264 262 263 264 265 267 269 272 276 279 283 287 289 288 287 289 290 287 283 281
236 240 243 244 247 250 252 255 258 259 261 262 261 260 260 261 263 264 265 267 268 265 261 260 260 260 260 261 264 267 270 275 280 282 283 284 285 287 287 284 283 280
234 236 239 242 244 247 251 255 258 257 256 256 257 259 260 259 258 258 259 260 261 261 260 260 260 260 259 259 260 263 267 273 277 278 280 282 284 285 283 281 278 276
235 236 238 240 242 245 252 256 256 253 252 254 257 259 259 255 252 252 255 257 260 262 262 260 261 261 260 259 260 263 268 272 275 277 279 281 282 282 279 277 273 273
238 237 238 239 242 248 254 256 253 252 254 256 256 257 253 246 247 252 256 262 268 267 262 263 266 264 258 259 262 265 269 273 275 277 278 279 280 278 274 272 273 275
238 237 238 242 247 252 254 253 252 252 251 249 246 244 241 244 256 263 265 273 280 275 266 266 268 262 255 257 263 268 271 274 275 275 276 277 275 270 269 271 275 278
236 236 240 245 249 251 249 247 245 240 237 236 236 242 253 263 272 278 280 287 288 280 270 266 265 261 258 260 267 271 272 273 272 272 274 273 269 265 266 272 278 284
235 238 241 243 244 242 241 239 234 227 230 240 251 269 279 279 284 292 293 289 284 277 271 269 267 265 265 267 270 271 270 269 270 271 272 271 267 264 267 274 280 287